Location: Munkebjergskolens Observatorium
(55.3864°N, 10.3987°E)
Time: 23:18:43
(UTC+01:00)

DELTA 1 DEB - Pass Details

Date: 09 December 2023
Orbit: 783 x 826 km, 98.9° (Epoch: 04 March)

Event Time Altitude Azimuth Distance (km) Brightness Sun altitude
Rises 05:33:55 0° 26° (NNE) 3,376 ? -23.7°
Reaches altitude 10° 05:37:16 10° 48° (NE) 2,441 ? -23.2°
Maximum altitude 05:40:31 16° 85° (E) 2,044 ? -22.8°
Drops below altitude 10° 05:43:46 10° 122° (ESE) 2,432 ? -22.3°
Sets 05:47:05 0° 144° (SE) 3,358 ? -21.9°
